Temp
11 11 10 9 9 9 8 8 7 7 6 6 6 4 3 3 3 2 2 2 2 2
10 9 9 9 9 8 7 7 6 6 6 5 4 3 4 3 2 2 2 2 2 1
9 9 8 8 8 7 7 7 6 6 4 3 3 3 3 2 2 2 2 1 0 0
9 8 8 7 7 6 6 5 5 4 3 3 3 3 2 1 2 2 1 0 -1 -1
8 8 7 6 6 5 4 4 3 3 3 2 2 2 1 1 1 1 -0 -1 -1 -1
8 7 6 5 5 3 3 2 2 1 2 1 1 1 1 1 1 -1 -1 -2 -2 -2
6 5 5 4 3 2 2 1 1 1 1 1 0 1 1 -0 -2 -2 -2 -3 -3 -4
5 5 4 4 3 2 1 1 1 0 0 0 -0 -1 -1 -2 -2 -3 -3 -4 -5 -5
5 4 4 3 2 1 1 1 0 -0 -0 -1 -2 -2 -2 -2 -3 -4 -4 -5 -5 -6
4 4 3 2 1 1 0 0 0 -0 -1 -2 -3 -2 -3 -4 -4 -5 -5 -6 -6 -6
4 3 2 1 1 1 0 -0 -0 -1 -2 -3 -3 -3 -4 -5 -5 -6 -6 -6 -7 -7
3 2 1 1 0 -0 -0 -0 -1 -2 -3 -3 -4 -4 -5 -5 -6 -6 -7 -7 -7 -7
2 1 0 0 -0 -0 -1 -1 -2 -3 -3 -3 -4 -4 -5 -6 -6 -7 -7 -7 -7 -8
1 1 0 0 -1 -0 -1 -2 -3 -3 -3 -4 -4 -5 -6 -7 -7 -7 -7 -7 -8 -8
Height
864 865 865 865 864 862 860 858 856 854 853 852 851 851 849 848 848 848 845 844 843 841
864 865 865 864 862 860 857 855 853 852 850 849 848 847 846 844 844 844 843 841 839 837
863 864 863 861 860 858 856 854 851 849 847 845 844 843 843 840 841 839 839 837 836 834
861 861 860 859 858 856 854 851 848 844 842 840 840 839 838 837 836 836 836 834 833 831
859 858 857 857 856 854 851 847 843 840 838 837 837 836 834 833 833 833 832 831 830 827
857 856 856 855 853 850 846 843 839 837 836 834 832 832 832 831 830 830 829 828 826 823
855 855 854 852 849 846 842 839 837 835 833 832 831 830 830 829 829 828 827 825 822 819
852 852 850 848 845 842 839 837 834 832 831 831 830 829 828 828 826 825 823 820 817 814
849 849 847 844 842 839 836 833 831 830 829 829 828 827 826 825 824 822 819 816 813 810
846 845 843 841 838 836 833 831 830 828 827 827 826 825 824 822 821 819 816 813 810 806
842 840 839 837 835 832 830 828 827 825 825 825 824 823 821 819 818 816 813 810 807 803
838 836 835 833 831 829 826 825 824 823 823 823 822 820 819 817 816 813 810 807 804 801
834 832 830 829 826 824 822 821 820 820 820 820 819 818 816 815 814 811 808 805 801 798
829 826 825 824 823 821 819 818 818 818 818 818 816 815 814 813 812 809 806 803 798 795
Wind_Speed
3 5 7 11 14 15 18 20 20 16 14 15 15 10 12 9 10 9 8 9 10 10
5 6 7 9 12 14 15 15 13 14 17 17 12 13 13 10 11 12 12 12 11 10
2 3 7 10 12 12 14 16 19 20 16 14 13 14 14 11 13 15 13 13 11 12
3 7 9 9 10 12 15 19 21 21 18 16 15 14 15 12 11 14 14 11 11 13
7 7 7 9 10 15 19 22 21 18 12 9 13 14 12 9 10 11 10 11 13 17
7 6 7 10 14 18 19 18 16 11 12 13 13 7 5 9 10 6 8 13 16 19
7 7 9 13 17 19 20 17 14 13 13 6 2 4 8 6 4 8 12 14 16 18
8 8 12 16 20 20 17 13 13 10 6 5 4 2 1 4 8 12 15 16 17 18
8 10 15 19 18 16 14 12 8 6 4 3 1 2 6 9 11 13 14 17 18 17
8 13 17 15 14 14 12 8 5 8 4 2 1 6 10 13 10 12 15 15 16 16
11 14 14 13 14 14 10 8 8 6 4 2 3 8 11 13 10 12 14 15 15 16
13 13 11 12 16 14 10 8 7 5 5 3 5 8 10 11 11 13 15 14 15 16
15 13 11 14 13 13 9 8 6 6 5 6 7 8 10 10 11 14 16 15 15 14
16 14 11 12 11 11 7 5 7 6 6 7 8 8 9 10 11 12 15 16 16 15
Wind_Direction
25 328 316 316 315 309 304 300 300 289 269 271 273 277 301 283 287 276 285 293 304 301
315 319 322 320 319 315 317 320 313 291 280 275 265 304 303 288 296 301 294 299 299 292
72 15 345 341 337 336 335 327 317 306 288 279 274 305 294 283 282 279 281 284 280 287
23 350 345 346 338 331 325 321 305 299 296 283 284 285 288 262 269 284 283 279 285 289
346 341 336 333 329 328 323 316 313 311 295 286 290 295 274 263 287 290 283 288 297 298
316 304 312 325 326 327 325 322 319 307 297 297 300 298 291 299 293 292 297 302 302 302
273 291 316 325 328 330 329 327 325 317 310 305 290 277 304 294 310 312 310 309 308 307
283 297 317 327 329 329 327 323 322 317 305 298 268 290 340 325 326 321 316 314 314 311
281 306 323 326 324 323 323 319 313 322 306 230 95 322 324 329 325 321 319 319 318 317
297 314 321 320 319 320 319 317 299 309 268 215 89 326 330 330 327 322 322 321 321 320
306 309 315 313 318 318 308 294 288 285 228 205 303 323 333 331 329 326 325 324 322 319
300 299 307 313 314 309 299 283 275 239 216 246 300 324 331 336 327 326 327 328 323 319
297 291 300 312 313 313 297 281 246 209 231 278 303 318 326 333 323 325 328 326 323 325
301 284 292 310 307 309 301 260 222 221 261 284 296 305 318 326 325 321 322 324 326 326